Regional Weather Roundup
Issued by NWS

Home | Current Version | Previous Version | Text Only | Print | Product List | Glossary On
Versions: 1 2 3 4 5 6 7 8 9 10 11 12 13 14 15 16 17 18 19 20 21 22 23 24 25 26 27 28 29 30 31 32 33 34 35 36 37 38 39 40 41 42 43 44 45 46 47 48 49 50
000
ASCA42 TJSJ 311910
RWRPR
PUERTO RICO/U.S. VIRGIN ISLANDS HOURLY WEATHER ROUNDUP
NATIONAL WEATHER SERVICE SAN JUAN PR
300 PM AST FRI JUL 31 2015

PRZ001-004-312000-
PUERTO RICO

CITY           SKY/WX    TMP DP  RH WIND       PRES   REMARKS
SAN JUAN LMM   MOSUNNY   86  77  74 E20G26    30.02F HX  97
PONCE          MOSUNNY   90  77  66 SE23      29.97S HX 102
MAYAGUEZ       PTSUNNY   84  75  74 W8        30.05  HX  92
$$

PRZ006-007-312000-
U.S. VIRGIN ISLANDS

CITY           SKY/WX    TMP DP  RH WIND       PRES   REMARKS
CHARLOTTE AMA  MOSUNNY   88  73  62 SE18G24   30.01F HX  96
CHRISTIANSTED  PTSUNNY   88  73  62 E21G30    30.02F HX  96
$$

HOURLY WEATHER ROUNDUP FOR THE NEWS MEDIA

CITY           SKY/WX    TMP DP  RH WIND       PRES   REMARKS
ORLANDO        CLOUDY    80  73  79 SW8       29.99F
NEW YORK       MOSUNNY   92  51  24 W10G21    29.83F
NEWARK         MOSUNNY   92  55  28 W10G22    29.83F HX  90
CHICAGO        MOSUNNY   86  52  30 W17G31    29.96F
HARTFORD       SUNNY     87  59  38 W14G20    29.77F
BOSTON         MOSUNNY   89  53  29 W16G23    29.75S
DALLAS         PTSUNNY   96  69  41 NE12      30.05F HX 102
PHILADELPHIA   MOSUNNY   89  54  30 NW12G18   29.87F
LOS ANGELES    PTSUNNY   75  66  73 W7        30.03F
WASHINGTON DC  MOSUNNY   86  57  37 CALM      29.93F



USA.gov is the U.S. government's official web portal to all federal, state and local government web resources and services.